#timestamp,LO_Frequency,Hit,StdDev 
1636632015.3,286046997.1,N
1636632035.1,286046999.2,N
1636632036.0,286046999.2,N
1636632055.8,286046996.8,N
1636632075.7,286046999.5,N
1636632095.5,286046996.7,N
1636632115.4,286046995.0,Y
1636632135.2,286046999.1,P
1636632155.0,286046999.5,N
1636632155.9,286046999.5,N
1636632175.8,286046997.3,Y
1636632195.6,286046998.4,P
1636632215.4,286047002.6,P
1636632235.3,286047002.4,N
1636632255.1,286047002.1,N
1636632275.9,286047002.0,N
1636632295.7,286047002.7,N
1636632315.5,286046999.8,N
1636632335.4,286047002.3,N
1636632355.2,286047001.0,N
1636632375.1,286047000.3,N
1636632376.0,286047000.3,N
1636632395.8,286046998.3,N
1636632415.6,286046997.0,N
1636632435.5,286046996.9,N
1636632455.3,286046996.9,N
1636632475.1,286046996.7,N
1636632495.9,286046996.5,N
1636632515.7,286046999.4,N
1636632535.6,286046996.5,N
1636632555.4,286046999.1,N
1636632575.2,286046998.7,N
1636632595.1,286046998.2,N
1636632596.0,286046998.2,N
1636632615.8,286047000.4,N
1636632635.6,286046998.7,N
1636632655.5,286046998.7,N
1636632675.3,286046999.4,N
1636632695.2,286046999.3,N
1636632715.9,286046998.8,N
1636632735.7,286046996.6,N
1636632755.6,286046998.8,N
1636632775.4,286046997.0,N
1636632795.2,286046996.5,N
1636632815.1,286046996.7,N
1636632816.0,286046996.7,N
1636632835.8,286046995.9,N
1636632855.7,286046996.1,N
1636632875.5,286046997.8,N
1636632895.3,286046997.4,N
1636632915.2,286046994.9,Y
1636632935.0,286046998.7,P
1636632935.9,286046998.7,P
1636632955.8,286046998.1,P
1636632975.6,286046999.1,N
1636632995.4,286046996.7,Y
1636633015.3,286046998.9,P
1636633035.1,286046998.9,P
1636633055.9,286046998.9,P
1636633075.7,286046998.9,Y
1636633095.5,286047000.8,P
1636633115.4,286047000.7,N
1636633135.2,286046998.3,N
1636633155.1,286046998.7,N
1636633156.0,286046998.7,N
1636633175.8,286046998.6,N
1636633195.6,286046998.5,N
1636633215.5,286047000.0,N
1636633235.3,286047002.7,N
1636633255.1,286047000.3,N
1636633275.9,286047000.3,N
1636633295.7,286046999.8,N
1636633315.6,286047000.4,N
1636633335.4,286047000.5,N
1636633355.2,286047000.8,N
1636633375.1,286046998.2,N
1636633376.0,286046998.2,N
1636633395.8,286046999.1,N
1636633415.6,286046998.8,N
1636633435.5,286046998.9,N
1636633455.3,286046998.3,N
1636633475.2,286047000.6,N
1636633495.9,286047001.0,N
1636633515.7,286047001.0,N
1636633535.6,286047000.8,N
1636633555.4,286046998.7,N
1636633575.2,286047001.2,N
1636633595.1,286047000.9,N
1636633596.0,286047000.9,N
1636633615.8,286046998.6,N
1636633635.7,286047000.9,N
1636633655.5,286047000.7,N
1636633675.3,286047000.1,N
1636633695.2,286046999.7,N
1636633715.0,286047000.3,N
1636633715.9,286047000.3,N
1636633735.8,286047000.5,N
1636633755.6,286047001.2,N
1636633775.4,286047000.6,N
1636633795.3,286047001.0,N
1636633815.1,286047000.2,N
1636633835.8,286046999.9,N
1636633855.7,286047002.8,N
1636633875.5,286047002.8,N
1636633895.4,286047000.8,N
1636633915.2,286047001.1,N
1636633935.0,286047001.1,N
1636633936.0,286047001.1,N
1636633955.8,286046998.2,N
1636633975.6,286046998.3,N
1636633995.5,286046999.6,N
1636634015.3,286046997.1,N
1636634035.1,286046998.0,N
1636634055.9,286046997.8,N
1636634075.7,286046997.6,N
1636634095.6,286046997.9,N
1636634115.4,286046995.2,Y
1636634135.3,286046997.7,P
1636634155.1,286046997.6,N
1636634156.0,286046997.6,N
1636634175.8,286046998.0,N
1636634195.7,286046995.7,Y
1636634215.5,286046996.6,P
1636634235.3,286046999.6,N
1636634255.2,286046998.9,N
1636634275.0,286046998.7,N
1636634275.9,286046998.7,N
1636634295.4,286046999.6,N
1636634315.2,286046999.0,N
1636634335.1,286046999.1,N
1636634336.0,286046999.1,N
1636634355.8,286046998.4,N
1636634375.7,286046999.0,N
1636634395.5,286046999.2,N
1636634415.3,286046998.1,N
1636634435.2,286047001.1,N
1636634455.0,286047001.2,N
1636634455.9,286047001.2,N
1636634475.7,286047000.2,N
1636634495.6,286047000.7,N
1636634515.4,286046998.1,N
1636634535.3,286046999.5,N
1636634555.1,286046998.9,N
1636634556.0,286046998.9,N
1636634575.8,286046999.4,N
1636634595.7,286046999.1,N
1636634615.5,286046996.5,Y
1636634635.4,286046999.1,P
1636634655.2,286046998.9,P
1636634675.0,286047001.2,P
1636634675.9,286047001.2,N
1636634695.8,286047000.6,N
1636634715.6,286046998.1,N
1636634735.4,286047000.8,N
1636634755.3,286047000.9,N
1636634775.1,286047001.0,N
1636634795.9,286046999.9,N
1636634815.7,286047000.4,N
1636634835.5,286047000.0,N
1636634855.4,286046999.7,N
1636634875.2,286047002.5,N
1636634895.0,286047004.3,Y
1636634895.9,286047004.3,P
1636634915.8,286047004.0,N
1636634935.6,286047003.8,N
1636634955.5,286047001.7,N
1636634975.3,286047001.8,N
1636634995.1,286047001.5,N
1636635015.9,286047001.8,N
1636635035.7,286047003.9,N
1636635055.6,286047003.5,N
1636635075.4,286047001.4,N
1636635095.2,286047004.2,Y
1636635115.1,286047002.3,P
1636635116.0,286047002.3,P
1636635135.8,286047002.2,P
1636635155.7,286047002.2,Y
1636635175.5,286046998.3,P
1636635195.3,286046997.3,N
1636635215.2,286046996.5,N
1636635235.0,286046999.4,N
1636635235.9,286046999.4,N
1636635255.8,286046998.9,N
1636635275.6,286046998.5,N
1636635295.4,286046999.9,N
1636635315.3,286047001.2,N
1636635335.1,286047000.8,N
1636635336.0,286047000.8,N
1636635355.8,286046998.8,N
1636635375.7,286047001.1,N
1636635395.5,286046996.5,N
1636635415.3,286046999.6,N
1636635435.2,286046997.2,N
1636635455.0,286046996.6,N
1636635455.9,286046996.6,N
1636635475.8,286046997.7,N
1636635495.6,286046996.8,N
1636635515.4,286046999.5,N
1636635535.3,286046998.7,N
1636635555.1,286046998.6,N
1636635575.9,286047000.8,N
1636635595.7,286047000.2,N
